Zurück zum Katalog

CZ-6A DEB

AktivPO
NORAD 54892·DEBRIS·🇨🇳 China

Gestartet Nov 11, 2022 von Taiyuan Satellite Launch Center

Loading…

Nächste Überflüge (nächste 24 Stunden)

TLE

AktuellSource: Space-Track

Epoche: Sep 13, 2026, 17:45 UTC

1 54892U 22151QD  26256.73974471  .00006969  00000-0  10810-2 0  9994
2 54892  98.6146 325.8910 0065339  13.2195 347.0703 14.72041508200502

Verfolge CZ-6A DEB in Echtzeit mit AllMySat

Download on the App Store